www.pogodaiklimat.ru

Архив погоды в Владикавказе (Северная Осетия, Россия)

Время
(UTC), дата
03 21.05
06 21.05
09 21.05
12 21.05
15 21.05
18 21.05
21 21.05
00 22.05
03 22.05
06 22.05
09 22.05
12 22.05
15 22.05
18 22.05
21 22.05
00 23.05
03 23.05
06 23.05
09 23.05
12 23.05
15 23.05
18 23.05
21 23.05
00 24.05
03 24.05
06 24.05
09 24.05
12 24.05
15 24.05
18 24.05
21 24.05
00 25.05
03 25.05
06 25.05
09 25.05
12 25.05
15 25.05
18 25.05
21 25.05
00 26.05
03 26.05
06 26.05
09 26.05
12 26.05
15 26.05
18 26.05
21 26.05
00 27.05
03 27.05
06 27.05
09 27.05
12 27.05
15 27.05
18 27.05
21 27.05
00 28.05
Ветер
(напр.,м/с)
Видим. Явления Облачность Т
(С)
Тd
(С)
f
(%)
Тe
(С)
Тes
(С)
Комфортность P
(гПа)
Po
(гПа)
Тmin
(С)
Tmax
(С)
R
(мм)
R24
(мм)
S
(см)
Ю 2 50 км 1/0
[Ac trans]
+11.1 +4.9 66 +10 +11 прохладно 1020.4 938.6 +8.8
В 2 50 км 1/1 1500 м
[Cu med, cong]
+18.6 +5.1 41 +19 +30 тепло 1018.2 938.6
СВ 2 20 км 4/4 1000 м
[Cu med, cong]
+20.7 +3.1 31 +22 +33 комфорт 1017.5 938.5
СВ 2 20 км 5/5 1000 м
[Cu med, cong]
+20.8 +3.4 32 +22 +28 комфорт 1016.8 937.9
В 2 20 км 3/3 1000 м
[Sc]
+19.5 +4.6 37 +21 +22 комфорт 1016.8 937.6 +21.4
штиль 0 10 км 3/0
[Ac trans]
+14.3 +6.3 59 +14 +14 по сезону 1019.1 938.3
Ю 1 10 км 1/0
[Ac trans]
+12.3 +6.3 67 +12 +12 по сезону 1018.8 937.6
штиль 0 10 км ясно +9.8 +6.0 77 +9 +9 прохладно 1018.7 936.8
Ю 1 20 км 3/0
[Cs]
+12.0 +6.8 70 +12 +14 по сезону 1018.1 936.8 +8.7
СЗ 1 20 км 3/1 1000 м
[Cu med, cong Ci fib]
+18.4 +7.1 48 +20 +32 тепло 1015.9 936.5
СВ 1 20 км 5/3 1000 м
[Cu med, cong Ci fib]
+21.6 +7.9 41 +23 +38 комфорт 1014.2 935.8
С 3 20 км 8/8 600 м
[Cu med, cong]
+22.1 +6.9 37 +23 +25 комфорт 1012.8 934.6
В 2 20 км 9/9 600 м
[Cb calv]
+19.6 +8.6 49 +21 +21 комфорт 1013.4 934.5 +22.7
Ю 1 10 км 6/6 600 м
[Sc diur, vesp]
+15.5 +9.0 65 +16 +16 по сезону 1015.0 934.9
З 1 10 км 8/5 600 м
[Sc Ac trans]
+14.0 +8.5 69 +14 +14 по сезону 1014.7 934.3
Ю 1 10 км 6/0
[Ac und]
+10.9 +8.3 84 +11 +11 по сезону 1015.0 933.7
штиль 0 50 км 4/0
[Ac trans]
+13.2 +8.5 73 +13 +14 по сезону 1014.5 933.9 +9.8
С 1 50 км 3/1 600 м
[Cu hum Ac trans]
+18.5 +8.2 51 +20 +31 тепло 1012.8 933.7
С 2 20 км 6/4 600 м
[Cu Sc Ac und]
+19.7 +9.4 51 +21 +30 комфорт 1012.4 933.6
СВ 2 20 км 5/5 600 м
[Cu Sc]
+20.4 +9.4 49 +22 +28 комфорт 1011.5 933.1
В 2 20 км 8/5 600 м
[Sc Ac und]
+19.6 +8.2 48 +21 +21 комфорт 1011.8 933.0 +21.8
ЮВ 2 10 км 6/6 600 м
[Sc]
+15.7 +10.4 71 +16 +16 по сезону 1014.0 934.1
Ю 1 10 км 6/6 600 м
[Sc]
+13.6 +8.8 73 +14 +14 по сезону 1014.9 934.3
Ю 1 10 км 4/3 600 м
[Sc Ac und]
+11.7 +8.2 79 +12 +12 по сезону 1015.4 934.3
Ю 1 20 км 8/5 600 м
[Sc Ac As Ci fib]
+12.3 +7.9 74 +12 +13 прохладно 1015.2 934.2 +11.1
ЮВ 1 20 км 8/4 600 м
[Cu Sc Ac und Ci fib]
+18.8 +9.3 54 +20 +26 тепло 1014.2 935.1
В 4 10 км 9/5 600 м
[Cb calv Ac As]
+18.9 +7.3 47 +19 +22 по сезону 1014.4 935.3
Ю 1 10 км 10/10 600 м
[Cb calv]
+18.6 +9.6 56 +20 +20 по сезону 1015.3 936.1
Ю 1 10 км 10/5 1000 м
[Cb calv Ac As]
+16.7 +9.8 64 +18 +18 по сезону 1016.8 936.9 +20.8
ЮВ 1 10 км 8/3 1000 м
[Sc Ac As]
+14.3 +10.3 77 +15 +15 по сезону 1019.1 938.4
В 2 10 км 9/0
[Ac trans]
+13.5 +8.3 71 +13 +13 по сезону 1019.4 938.4
ЮЗ 1 10 км 10/10 600 м
[Sc]
+12.5 +9.0 79 +13 +13 по сезону 1018.9 937.7
СЗ 1 10 км 10/10 600 м
[Sc]
+12.4 +9.9 85 +12 +12 прохладно 1018.7 937.6 +12.1
СВ 1 4000 м в посл. час дождь 10/10 300 м
[Sc As op]
+13.2 +10.2 82 +13 +13 прохладно 1018.8 937.9 +11.8
В 1 4000 м дымка 10/10 600 м
[Sc]
+13.3 +9.6 78 +14 +14 холодно 1018.8 937.8
В 1 4000 м дымка 10/10 600 м
[Sc]
+14.2 +10.1 76 +15 +15 холодно 1017.5 937.0
В 1 4000 м дымка 10/10 600 м
[Sc]
+13.5 +11.2 86 +14 +14 прохладно 1016.8 936.1 +14.7 0.0
СЗ 1 2000 м слаб. ливневой дождь 10/10 300 м
[Cb cap]
+12.6 +11.6 94 +13 +13 по сезону 1016.4 935.5
З 1 2000 м дымка {ливн. дождь} 10/10 300 м
[Sc]
+12.1 +11.0 93 +12 +12 по сезону 1014.6 933.7
З 2 2000 м дымка {ливн. дождь} 10/10 300 м
[Sc]
+11.3 +10.6 95 +10 +10 по сезону 1014.3 933.2
З 1 2000 м слаб. дождь 10/10 300 м
[Frnb Ns]
+10.9 +10.4 97 +10 +10 прохладно 1013.9 932.7 +10.6 0.3
З 1 1000 м слаб. дождь {туман} 10/10 300 м
[Frnb Ns]
+12.3 +10.4 88 +12 +12 прохладно 1013.4 932.7
З 1 1000 м дымка {дождь} 10/10 300 м
[Sc]
+12.3 +10.2 87 +12 +12 холодно 1014.2 933.4
З 1 10 км {дождь} 10/10 300 м
[Sc]
+15.6 +10.4 71 +16 +16 прохладно 1013.0 933.1
З 1 10 км 9/9 600 м
[Sc]
+15.9 +10.2 69 +17 +17 по сезону 1013.5 933.7 +16.8 0.0
штиль 0 10 км 6/6 600 м
[Sc]
+11.8 +10.3 91 +11 +11 прохладно 1015.9 934.8
штиль 0 10 км 8/0
[Ac As]
+10.9 +9.4 90 +10 +10 по сезону 1016.4 935.0
Ю 1 10 км 10/10 600 м
[Sc]
+11.9 +9.7 86 +12 +12 тепло 1016.3 935.2
штиль 0 20 км 10/10 600 м
[Sc]
+13.1 +10.2 83 +13 +13 по сезону 1017.1 936.2 +10.8
В 1 20 км 3/1 600 м
[Cu Sc Ac trans]
+18.6 +10.5 59 +20 +31 тепло 1015.3 936.1
СВ 1 10 км 10/10 600 м
[Sc diur, vesp]
+19.7 +10.0 53 +22 +22 комфорт 1015.6 936.6
В 2 10 км 9/9 600 м
[Cb calv]
+19.3 +11.5 61 +21 +22 комфорт 1016.0 936.9
В 1 10 км 8/8 600 м
[Cb calv]
+18.4 +11.6 65 +20 +20 тепло 1016.6 937.2 +19.9
штиль 0 10 км 5/5 600 м
[Sc]
+14.9 +11.4 80 +15 +15 тепло 1018.2 937.8
штиль 0 10 км 5/5 600 м
[Sc]
+13.4 +11.1 86 +13 +13 тепло 1017.1 936.4
штиль 0 10 км 8/5 600 м
[Sc Ac und]
+11.3 +9.9 91 +11 +11 тепло 1018.1 936.7
Местоположение метеостанции Владикавказ (Северная Осетия, Россия): широта 43.03 долгота 44.68 высота над уровнем моря 703 м.
В архиве по умолчанию представлена погода в Владикавказе за последнюю неделю. Архивные данные за месяц целиком и за предыдущие месяцы, начиная с января 2011 года, Вы можете получить, выбрав интересующий диапазон дат из раскрывающегося списка и нажав кнопку "Найти!".
*Определитесь, кто Вы:
Внимание! Время в таблицах - всемирное. Для получения местного времени необходимо прибавить поправку, которая равна 3 ч.
Некоторые строки с данными для отдельных станций могут быть выделены курсивом. Это означает, что фактические данные отсутствуют по различным причинам, а приведенные значения являются расчетными модельными данными для данного пункта наблюдений.
Смотрите также архив погоды в соседних городах и на ближайших метеорологических станциях:
Партнеры нашего сайта:      
Пояснения к столбцам:
  • Ветер - указаны скорость ветра в м/с - средняя за 10 мин, порывы в срок и между сроками (в фигурных скобках) и направление, откуда дует ветер: С - северный,
  • СВ - северо-восточный, В - восточный, ЮВ - юго-восточный, Ю - южный, ЮЗ - юго-западный, З - западный, СЗ - северо-западный.
  • Видимость - горизонтальная дальность видимости в метрах или километрах. При видимости от 1 до 10 км при отсутствии осадков обычно наблюдается дымка, при ухудшении видимости до 1 км и менее - туман. В сухую погоду видимость может ухудшаться дымом, пылью или мглою.
  • Явления - указаны атмосферные явления, наблюдавшиеся в срок или в последний час перед сроком; фигурными скобками обозначены явления, наблюдавшиеся между сроками (за 1-3 часа до срока); квадратными скобками обозначены град или гололедные отложения с указанием их диаметра в мм.
  • Облачность - указаны через наклонную черту общая и нижняя облачность в баллах и высота нижней границы облаков в метрах; квадратными скобками обозначены формы облаков: Ci - перистые, Cs - перисто-слоистые, Cc - перисто-кучевые, Ac - высококучевые, As - высокослоистые, Sc - слоисто-кучевые, Ns - слоисто-дождевые, Cu - кучевые, Cb - кучево-дождевые. Подробнее классификацию облаков см. в Атласе облаков (PDF).
  • T - Температура воздуха - температура, измеренная на высоте 2 м над землей.
  • Td - Температура точки росы - температура, при понижении до которой содержащийся в воздухе водяной пар достигнет насыщения.
  • f - Относительная влажность воздуха - влажноcть воздуха, измеренная на высоте 2 м над землей.
  • Te - Эффективная температура - температура, которую ощущает одетый по сезону человек в тени. Характеристика душности погоды. При расчете учитывается влияние влажности воздуха и скорости ветра на теплоощущения человека.
  • Tes - Эффективная температура на солнце - температура, которую ощущает человек, с поправкой на солнечный нагрев. Характеристика знойности погоды. Зависит от высоты солнца над горизонтом, облачности и скорости ветра. Ночью, в пасмурную погоду, а также при ветре 12 м/с и более поправка равна нулю.
  • P - Атмосферное давление - приведенное к уровню моря атмосферное давление.
  • Po - Атмосферное давление - измеренное на уровне метеостанции атмосферное давление.
  • Tmin - Минимальная температура - минимум температуры воздуха на высоте 2 м над землей.
  • Tmax - Максимальная температура - максимум температуры воздуха на высоте 2 м над землей.
  • R - Количество осадков - Количество выпавших осадков за период времени, мм. При наведении курсора мыши на число - период времени, за который выпало указанное количество осадков.
  • R24 - Количество осадков - Количество выпавших осадков за 24 часа, мм.
  • S - Снежный покров - Высота снежного покрова, см. При наведении курсора мыши на число - состояние снежного покрова и степень покрытия местности в баллах.